Flag for Canada Weather past 2 weeks in Rainy River, Ontario, Canada

Now
35 °F

Passing clouds.


Feels Like: 29 °F
Forecast: 39 / 63 °F
Wind: 8 mph from Southeast

Location: Baudette International Airport

Current Time: Apr 1, 2015 at 3:32:50 AM

Latest Report: Apr 1, 2015 at 2:53 AM


Visibility: 10 mi

Pressure: 29.80 "Hg

Humidity: 75%

Dew point: 28 °F

Location of Rainy RiverLocation

Historic Weather in Rainy River — Graph

°F

Rainy River temperature yesterday

Maximum temperature yesterday: 49 °F (at 4:53 PM)
Minimum temperature yesterday: 35 °F (at 6:53 AM)
Average temperature yesterday: 40 °F

Past Weeks' High & Low Weather Summary

 TemperatureHumidityPressure
High50 °F (Mar 30, 5:53 PM)97% (Mar 29, 6:03 AM)30.46 "Hg (Mar 29, 6:03 AM)
Low5 °F (Mar 21, 6:53 AM)28% (Mar 22, 3:53 PM)29.40 "Hg (Mar 29, 6:03 AM)
Average31 °F65%30.07 "Hg
* Reported Mar 17 1:53 AM — Apr 1 1:53 AM, Rainy River, Weather by CustomWeather, © 2015

Note: Actual official high and low records may vary slightly from our data, if they occured in-between our weather recording intervals... More about our weather records

Advertising

Rainy River weather history for previous 24 hours

 ConditionsComfort  
Time TempWeatherWind HumidityBarometerVisibility
1:53 AM
Wed, Apr 1
37 °FPassing clouds.9 mph73%29.82 "Hg10 mi
12:53 AM37 °FPassing clouds.10 mph76%29.83 "Hg10 mi
11:53 PM
Tue, Mar 31
36 °FClear.9 mph79%29.86 "Hg10 mi
10:53 PM37 °FPassing clouds.8 mph73%29.88 "Hg10 mi
9:53 PM38 °FClear.7 mph76%29.89 "Hg10 mi
8:53 PM39 °FClear.6 mph76%29.89 "Hg10 mi
7:53 PM42 °FSunny.5 mph68%29.88 "Hg10 mi
6:53 PM45 °FSunny.7 mph63%29.89 "Hg10 mi
5:53 PM48 °FSunny.6 mph56%29.90 "Hg10 mi
4:53 PM49 °FSunny.6 mph57%29.90 "Hg10 mi
3:53 PM48 °FSunny.6 mph63%29.91 "Hg10 mi
2:53 PM46 °FSunny.7 mph68%29.92 "Hg10 mi
1:53 PM46 °FScattered clouds.7 mph71%29.93 "Hg10 mi
12:53 PM42 °FOvercast.6 mph79%29.93 "Hg10 mi
11:53 AM40 °FOvercast.10 mph83%29.94 "Hg10 mi
10:53 AM39 °FOvercast.15 mph82%29.93 "Hg10 mi
9:53 AM37 °FLow clouds.13 mph89%29.92 "Hg10 mi
8:53 AM37 °FLow clouds.14 mph86%29.90 "Hg10 mi
7:53 AM36 °FLow clouds.12 mph89%29.88 "Hg10 mi
6:53 AM35 °FOvercast.12 mph92%29.85 "Hg10 mi
5:53 AM36 °FOvercast.9 mph89%29.83 "Hg10 mi
4:53 AM36 °FClear.13 mph85%29.81 "Hg10 mi
3:53 AM36 °FClear.8 mph85%29.80 "Hg10 mi
Weather by CustomWeather, © 2015

See weather overviewHow to use our weather pages